DW9679 Alicante ES current weather conditions

sailwx.info

Wind from 302 at 0 knots gusting 2

Air temperature 25.0° C
Dewpoint 16.1° C

Last reported at 2017-Sep-21 10:08 UTC.
Time now 2017-Sep-21 10:43 UTC

Location: N 38°21' W 000°39'.
View on Google Maps.

See reports from other nearby stations

  
Tides and Currents Weather Stations Pressure Air Temp Water Temp Dewpoint Dewpoint Depression Visibility Wind Speed Wind Dir Waves Ship Positions
date/time (UTC)wind fromknots sea level pressurealtimeterstation pressurevisibilityair tempwater tempwave heightnotes
2017-Sep-21 10:08 302 0 gusting 2 25.0
2017-Sep-21 10:03 053 0 gusting 2 25.0
2017-Sep-21 09:58 063 0 gusting 2 24.4
2017-Sep-21 09:53 123 0 gusting 1 24.4
2017-Sep-21 09:48 158 0 gusting 1 24.4
2017-Sep-21 09:43 215 24.4
2017-Sep-21 09:38 134 24.4
2017-Sep-21 09:33 075 0 gusting 1 24.4
2017-Sep-21 09:28 150 24.4
2017-Sep-21 09:23 134 23.9
2017-Sep-21 09:18 127 0 gusting 2 23.9
2017-Sep-21 09:13 065 0 gusting 2 23.9
2017-Sep-21 09:08 110 23.9
2017-Sep-21 09:03 115 0 gusting 2 23.9
2017-Sep-21 08:58 195 0 gusting 2 23.9
2017-Sep-21 08:53 063 23.3
2017-Sep-21 08:48 132 23.3
2017-Sep-21 08:43 100 0 gusting 1 23.3
2017-Sep-21 08:38 019 22.8
2017-Sep-21 08:33 134 0 gusting 1 22.8
2017-Sep-21 08:28 109 22.8
2017-Sep-21 08:23 020 22.2
2017-Sep-21 08:18 004 22.2
2017-Sep-21 08:13 064 22.2
2017-Sep-21 08:08 314 22.2
2017-Sep-21 08:03 321 21.7
2017-Sep-21 07:58 240 22.2
2017-Sep-21 07:53 240 21.7
2017-Sep-21 07:48 243 21.1
2017-Sep-21 07:43 243 20.6
2017-Sep-21 07:38 242 20.0
2017-Sep-21 07:33 310 19.4
2017-Sep-21 07:28 294 19.4
2017-Sep-21 07:23 281 18.9
2017-Sep-21 07:18 301 0 gusting 1 18.3
2017-Sep-21 07:13 293 18.3
2017-Sep-21 07:08 294 0 gusting 2 17.8
2017-Sep-21 07:03 285 1 gusting 2 17.2
2017-Sep-21 06:58 305 17.2
2017-Sep-21 06:53 302 0 gusting 2 16.7
2017-Sep-21 06:48 302 0 gusting 2 16.7
2017-Sep-21 06:43 314 0 gusting 2 16.7
2017-Sep-21 06:38 306 0 gusting 2 16.1
2017-Sep-21 06:33 306 0 gusting 2 16.1
2017-Sep-21 06:28 312 1 gusting 3 16.1
2017-Sep-21 06:23 300 1 gusting 3 16.1
2017-Sep-21 06:18 314 1 gusting 2 16.1
2017-Sep-21 06:13 313 0 gusting 1 16.1
2017-Sep-21 06:08 309 0 gusting 2 15.6
2017-Sep-21 06:03 312 1 gusting 2 15.6
2017-Sep-21 05:58 321 0 gusting 1 16.1
2017-Sep-21 05:53 316 16.1
2017-Sep-21 05:48 316 16.1
2017-Sep-21 05:43 317 1 gusting 2 16.1
2017-Sep-21 05:39 315 1 gusting 2 16.1
2017-Sep-21 05:28 313 0 gusting 1 16.1
2017-Sep-21 05:23 313 16.1
2017-Sep-21 05:18 317 1 gusting 2 16.1
2017-Sep-21 05:13 316 1 gusting 4 16.1
2017-Sep-21 05:08 323 1 gusting 4 16.1
2017-Sep-21 05:03 328 1 gusting 3 15.6
2017-Sep-21 04:58 325 2 gusting 3 16.1
2017-Sep-21 04:53 314 16.1
2017-Sep-21 04:48 296 16.1
2017-Sep-21 04:43 295 0 gusting 2 16.1
2017-Sep-21 04:38 284 0 gusting 2 16.1
2017-Sep-21 04:33 297 1 gusting 4 16.1
2017-Sep-21 04:28 304 0 gusting 2 16.1
2017-Sep-21 04:23 307 16.1
2017-Sep-21 04:18 261 16.1
2017-Sep-21 04:13 320 0 gusting 2 16.1
2017-Sep-21 04:08 314 1 gusting 2 16.1
2017-Sep-21 04:03 306 0 gusting 2 16.7
2017-Sep-21 03:58 335 1 gusting 3 16.7
2017-Sep-21 03:53 304 1 gusting 3 16.1
2017-Sep-21 03:48 309 1 gusting 2 16.1
2017-Sep-21 03:43 315 0 gusting 1 16.1
2017-Sep-21 03:38 318 0 gusting 2 16.1
2017-Sep-21 03:33 313 0 gusting 2 16.1
2017-Sep-21 03:28 320 1 gusting 2 16.7
2017-Sep-21 03:23 295 0 gusting 0 16.7
2017-Sep-21 03:18 247 16.7
2017-Sep-21 03:13 314 16.7
2017-Sep-21 03:08 306 16.7
2017-Sep-21 03:03 316 0 gusting 2 16.7
2017-Sep-21 02:58 302 17.2
2017-Sep-21 02:53 302 17.2
2017-Sep-21 02:48 302 17.2
2017-Sep-21 02:43 302 17.2
2017-Sep-21 02:38 306 1 gusting 1 17.2
2017-Sep-21 02:33 305 0 gusting 2 17.2
2017-Sep-21 02:28 302 0 gusting 2 17.2
2017-Sep-21 02:23 299 0 gusting 1 17.2
2017-Sep-21 02:18 318 17.2
2017-Sep-21 02:13 318 17.2
2017-Sep-21 02:03 317 0 gusting 2 17.2
2017-Sep-21 01:58 318 1 gusting 2 17.2
2017-Sep-21 01:53 321 1 gusting 2 17.2
2017-Sep-21 01:48 314 0 gusting 1 17.2
2017-Sep-21 01:43 317 0 gusting 1 17.2
2017-Sep-21 01:38 317 0 gusting 2 17.2
2017-Sep-21 01:33 318 0 gusting 2 17.2
2017-Sep-21 01:28 319 1 gusting 2 17.2
2017-Sep-21 01:23 316 0 gusting 1 17.2
2017-Sep-21 01:18 314 0 gusting 1 17.2
2017-Sep-21 01:13 318 0 gusting 1 17.2
2017-Sep-21 01:08 305 0 gusting 0 17.2
2017-Sep-21 01:03 314 17.8
2017-Sep-21 00:58 314 17.8
2017-Sep-21 00:53 313 17.8
2017-Sep-21 00:48 314 17.8
2017-Sep-21 00:43 313 17.8
2017-Sep-21 00:38 313 17.8
2017-Sep-21 00:33 314 0 gusting 1 17.8
2017-Sep-21 00:28 314 17.8
2017-Sep-21 00:23 314 17.8
2017-Sep-21 00:18 313 0 gusting 1 17.8
2017-Sep-21 00:13 302 18.3
2017-Sep-21 00:08 302 18.3
2017-Sep-21 00:03 314 0 gusting 1 18.3
2017-Sep-20 23:58 315 18.3
2017-Sep-20 23:53 315 18.3
2017-Sep-20 23:48 315 0 gusting 1 18.3
2017-Sep-20 23:43 314 0 gusting 1 18.3
2017-Sep-20 23:38 318 0 gusting 1 18.3
2017-Sep-20 23:33 318 0 gusting 1 18.9
2017-Sep-20 23:28 318 0 gusting 0 18.9
2017-Sep-20 23:23 317 0 gusting 0 18.9
2017-Sep-20 23:18 318 18.3
2017-Sep-20 23:13 317 18.3
2017-Sep-20 23:08 318 0 gusting 1 18.3
2017-Sep-20 23:03 314 0 gusting 1 18.3
2017-Sep-20 22:58 315 1 gusting 1 18.3
2017-Sep-20 22:53 314 18.3
2017-Sep-20 22:48 315 18.3
2017-Sep-20 22:43 315 18.3
2017-Sep-20 22:38 314 18.3
2017-Sep-20 22:33 314 0 gusting 0 18.9
2017-Sep-20 22:28 306 18.9
2017-Sep-20 22:23 307 18.9
2017-Sep-20 22:18 307 18.9
2017-Sep-20 22:13 302 18.9
2017-Sep-20 22:08 302 19.4
2017-Sep-20 22:03 302 19.4
2017-Sep-20 21:58 302 19.4
2017-Sep-20 21:53 302 19.4
2017-Sep-20 21:48 317 18.9
2017-Sep-20 21:43 317 18.9
2017-Sep-20 21:38 318 0 gusting 1 18.9
2017-Sep-20 21:33 319 0 gusting 0 18.9
2017-Sep-20 21:28 317 19.4
2017-Sep-20 21:23 317 19.4
2017-Sep-20 21:18 315 19.4
2017-Sep-20 21:13 314 0 gusting 0 19.4
2017-Sep-20 21:08 314 19.4
2017-Sep-20 21:03 315 19.4
2017-Sep-20 20:58 314 19.4
2017-Sep-20 20:53 314 19.4
2017-Sep-20 20:48 314 0 gusting 0 19.4
2017-Sep-20 20:43 315 19.4
2017-Sep-20 20:38 315 19.4
2017-Sep-20 20:33 315 19.4
2017-Sep-20 20:28 314 19.4
2017-Sep-20 20:23 315 19.4
2017-Sep-20 20:18 315 19.4
2017-Sep-20 20:13 315 19.4
2017-Sep-20 20:08 314 19.4
2017-Sep-20 20:03 314 0 gusting 0 20.0
2017-Sep-20 19:58 245 20.0
2017-Sep-20 19:53 211 20.0
2017-Sep-20 19:48 210 20.0
2017-Sep-20 19:43 211 20.0
2017-Sep-20 19:38 211 20.6
2017-Sep-20 19:33 211 20.6
2017-Sep-20 19:28 210 20.6
2017-Sep-20 19:24 211 20.6
2017-Sep-20 19:18 211 20.6
2017-Sep-20 19:13 211 20.6
2017-Sep-20 19:08 211 20.6
2017-Sep-20 19:03 211 20.6
2017-Sep-20 18:58 211 20.6
2017-Sep-20 18:53 211 20.6
2017-Sep-20 18:48 211 21.1
2017-Sep-20 18:43 211 21.1
2017-Sep-20 18:38 208 21.1
2017-Sep-20 18:33 205 21.1
2017-Sep-20 18:28 210 21.1
2017-Sep-20 18:23 205 0 gusting 2 21.7
2017-Sep-20 18:18 224 21.7
2017-Sep-20 18:13 205 21.7
2017-Sep-20 18:08 187 0 gusting 2 21.7
2017-Sep-20 18:03 208 22.2
2017-Sep-20 17:58 207 22.2
2017-Sep-20 17:53 117 22.2
2017-Sep-20 17:48 136 0 gusting 1 22.2
2017-Sep-20 17:43 179 22.8
2017-Sep-20 17:38 215 22.8
2017-Sep-20 17:33 231 22.8
2017-Sep-20 17:28 210 23.3
2017-Sep-20 17:23 198 23.3
2017-Sep-20 17:18 216 0 gusting 2 23.3
2017-Sep-20 17:13 165 23.3
2017-Sep-20 17:08 214 1 gusting 4 23.9
2017-Sep-20 17:03 216 1 gusting 4 23.9
2017-Sep-20 16:58 205 0 gusting 5 23.9
2017-Sep-20 16:53 106 1 gusting 6 23.9
2017-Sep-20 16:48 207 1 gusting 6 24.4
2017-Sep-20 16:43 124 1 gusting 4 24.4
2017-Sep-20 16:38 190 0 gusting 4 24.4
2017-Sep-20 16:33 235 1 gusting 4 25.0
2017-Sep-20 16:28 167 1 gusting 4 25.0
2017-Sep-20 16:23 186 1 gusting 4 25.0
2017-Sep-20 16:18 225 1 gusting 5 25.0
2017-Sep-20 16:13 217 1 gusting 5 25.0
2017-Sep-20 16:08 201 2 gusting 6 25.0
2017-Sep-20 16:03 162 2 gusting 6 25.0
2017-Sep-20 15:58 156 1 gusting 6 25.0
2017-Sep-20 15:53 191 4 gusting 6 25.0
2017-Sep-20 15:48 157 2 gusting 6 25.6
2017-Sep-20 15:43 162 3 gusting 6 25.6
2017-Sep-20 15:38 226 0 gusting 5 25.6
2017-Sep-20 15:33 201 2 gusting 6 25.6
2017-Sep-20 15:28 212 1 gusting 6 25.6
2017-Sep-20 15:23 203 1 gusting 5 25.6
2017-Sep-20 15:18 143 2 gusting 6 25.6
2017-Sep-20 15:13 186 3 gusting 6 25.6
2017-Sep-20 15:08 207 3 gusting 7 25.6
2017-Sep-20 15:03 210 2 gusting 6 26.1
2017-Sep-20 14:58 110 2 gusting 5 26.1
2017-Sep-20 14:53 214 3 gusting 6 25.6
2017-Sep-20 14:48 126 3 gusting 6 26.1
2017-Sep-20 14:43 186 2 gusting 7 25.6
2017-Sep-20 14:38 212 3 gusting 7 25.6
2017-Sep-20 14:33 110 2 gusting 7 26.1
2017-Sep-20 14:28 187 3 gusting 6 26.1
2017-Sep-20 14:23 187 2 gusting 7 25.6
2017-Sep-20 14:18 116 2 gusting 6 26.1
2017-Sep-20 14:13 110 2 gusting 6 26.1
2017-Sep-20 14:03 166 3 gusting 7 26.1
2017-Sep-20 13:58 212 3 gusting 8 26.1
2017-Sep-20 13:53 086 4 gusting 8 26.1
2017-Sep-20 13:48 163 1 gusting 6 26.1
2017-Sep-20 13:43 217 3 gusting 6 26.1
2017-Sep-20 13:38 200 3 gusting 7 25.6
2017-Sep-20 13:33 191 2 gusting 9 26.1
2017-Sep-20 13:28 145 3 gusting 9 26.1
2017-Sep-20 13:23 103 2 gusting 7 26.1
2017-Sep-20 13:18 203 1 gusting 8 26.1
2017-Sep-20 13:13 117 3 gusting 8 26.7
2017-Sep-20 13:08 084 2 gusting 6 26.1
2017-Sep-20 13:03 123 1 gusting 5 26.1
2017-Sep-20 12:58 179 3 gusting 7 25.6
2017-Sep-20 12:53 181 3 gusting 9 26.1
2017-Sep-20 12:48 186 3 gusting 9 26.1
2017-Sep-20 12:43 160 2 gusting 7 25.6
2017-Sep-20 12:38 233 1 gusting 5 25.6
2017-Sep-20 12:33 248 3 gusting 5 25.6
2017-Sep-20 12:28 222 3 gusting 5 25.6
2017-Sep-20 12:23 153 1 gusting 5 25.6
2017-Sep-20 12:18 068 2 gusting 5 26.1
2017-Sep-20 12:13 197 1 gusting 6 26.1
2017-Sep-20 12:08 159 0 gusting 6 26.1
2017-Sep-20 12:03 165 3 gusting 6 26.1
2017-Sep-20 11:58 215 1 gusting 6 25.6
2017-Sep-20 11:53 199 2 gusting 6 25.6
2017-Sep-20 11:48 172 2 gusting 5 25.6
2017-Sep-20 11:43 165 2 gusting 5 25.6
2017-Sep-20 11:38 208 3 gusting 6 25.0
2017-Sep-20 11:33 224 2 gusting 6 25.0
2017-Sep-20 11:28 187 2 gusting 6 25.0
2017-Sep-20 11:23 158 2 gusting 5 25.0
2017-Sep-20 11:18 139 0 gusting 5 25.0
2017-Sep-20 11:13 138 1 gusting 4 25.0
2017-Sep-20 11:08 195 1 gusting 4 25.0
2017-Sep-20 11:03 198 25.0
2017-Sep-20 10:58 124 2 gusting 6 25.6
2017-Sep-20 10:53 114 2 gusting 5 25.6
2017-Sep-20 10:48 229 2 gusting 5 25.0
2017-Sep-20 10:43 227 2 gusting 5 25.0
2017-Sep-20 10:38 128 0 gusting 5 25.0
2017-Sep-20 10:33 162 1 gusting 6 25.0
2017-Sep-20 10:28 136 2 gusting 6 25.0
2017-Sep-20 10:23 226 2 gusting 4 24.4
2017-Sep-20 10:18 207 1 gusting 4 23.9
2017-Sep-20 10:13 162 23.3
2017-Sep-20 10:08 198 0 gusting 4 23.3
2017-Sep-20 10:03 190 2 gusting 4 23.9
2017-Sep-20 09:58 200 1 gusting 2 23.9
2017-Sep-20 09:53 233 23.3
2017-Sep-20 09:48 230 23.3
2017-Sep-20 09:43 253 23.3
2017-Sep-20 09:38 280 23.3
2017-Sep-20 09:33 270 22.8
2017-Sep-20 09:28 240 0 gusting 2 22.8
2017-Sep-20 09:23 234 22.8
2017-Sep-20 09:18 226 0 gusting 2 23.3
2017-Sep-20 09:13 212 1 gusting 2 23.3
2017-Sep-20 09:08 195 0 gusting 2 23.3
2017-Sep-20 09:03 155 0 gusting 2 23.9
2017-Sep-20 08:58 203 0 gusting 2 23.9
2017-Sep-20 08:53 145 0 gusting 2 23.9
2017-Sep-20 08:48 077 23.3
2017-Sep-20 08:43 197 0 gusting 1 23.3
2017-Sep-20 08:38 015 23.3
2017-Sep-20 08:33 252 22.8
2017-Sep-20 08:28 101 0 gusting 0 22.8
2017-Sep-20 08:23 114 22.8
2017-Sep-20 08:18 072 22.2
2017-Sep-20 08:13 104 22.2
2017-Sep-20 08:08 019 22.8
2017-Sep-20 08:03 110 22.8
2017-Sep-20 07:58 112 22.8
2017-Sep-20 07:53 113 22.8
2017-Sep-20 07:48 151 22.2
2017-Sep-20 07:43 203 21.7
2017-Sep-20 07:38 214 21.1
2017-Sep-20 07:33 226 20.6
2017-Sep-20 07:28 316 20.0
2017-Sep-20 07:23 314 0 gusting 2 19.4
2017-Sep-20 07:18 325 1 gusting 2 18.9
2017-Sep-20 07:13 338 0 gusting 0 18.9
2017-Sep-20 07:08 295 18.9
2017-Sep-20 07:03 292 18.9
2017-Sep-20 06:58 299 18.9
2017-Sep-20 06:53 309 18.3
2017-Sep-20 06:48 310 0 gusting 1 18.3
2017-Sep-20 06:43 302 18.3
2017-Sep-20 06:38 293 0 gusting 1 18.3
2017-Sep-20 06:33 299 17.8
2017-Sep-20 06:28 299 17.8
2017-Sep-20 06:23 292 17.8
2017-Sep-20 06:18 321 0 gusting 2 17.2
2017-Sep-20 06:13 319 0 gusting 2 17.8
2017-Sep-20 06:08 323 1 gusting 2 17.8
2017-Sep-20 06:03 311 17.8
2017-Sep-20 05:58 310 17.8
2017-Sep-20 05:53 310 17.8
2017-Sep-20 05:48 309 0 gusting 1 17.8
2017-Sep-20 05:43 319 0 gusting 1 17.8
2017-Sep-20 05:38 315 0 gusting 1 18.3
2017-Sep-20 05:33 315 0 gusting 0 18.3
2017-Sep-20 05:28 315 18.3
2017-Sep-20 05:23 315 17.8
2017-Sep-20 05:18 314 17.8
2017-Sep-20 05:13 314 0 gusting 1 17.8
2017-Sep-20 05:08 314 0 gusting 1 17.8
2017-Sep-20 05:03 318 0 gusting 1 17.8
2017-Sep-20 04:58 312 0 gusting 2 17.2
2017-Sep-20 04:53 307 0 gusting 2 17.2
2017-Sep-20 04:48 319 1 gusting 2 17.2
2017-Sep-20 04:43 319 0 gusting 1 17.2
2017-Sep-20 04:38 328 0 gusting 1 17.2
2017-Sep-20 04:33 305 0 gusting 1 17.2
2017-Sep-20 04:28 311 17.2
2017-Sep-20 04:23 314 0 gusting 2 17.2
2017-Sep-20 04:18 326 0 gusting 2 17.2
2017-Sep-20 04:13 319 0 gusting 1 17.8
2017-Sep-20 04:08 307 0 gusting 2 17.2
2017-Sep-20 04:03 321 17.8
2017-Sep-20 03:58 315 0 gusting 1 17.8
2017-Sep-20 03:53 320 0 gusting 1 17.8
2017-Sep-20 03:48 325 0 gusting 1 17.8
2017-Sep-20 03:43 311 0 gusting 1 17.8
2017-Sep-20 03:38 316 0 gusting 1 17.8
2017-Sep-20 03:33 318 0 gusting 1 17.8
2017-Sep-20 03:28 315 18.3
2017-Sep-20 03:23 315 18.3
2017-Sep-20 03:18 315 18.3
2017-Sep-20 03:13 315 18.3
2017-Sep-20 03:08 315 18.3
2017-Sep-20 03:03 315 18.3
2017-Sep-20 02:58 314 18.3
2017-Sep-20 02:53 315 0 gusting 1 18.3
2017-Sep-20 02:48 315 0 gusting 1 18.3
2017-Sep-20 02:43 314 0 gusting 1 18.3
2017-Sep-20 02:38 309 0 gusting 1 18.3
2017-Sep-20 02:33 306 18.3
2017-Sep-20 02:28 306 18.3
2017-Sep-20 02:23 307 18.3
2017-Sep-20 02:18 306 18.3
2017-Sep-20 02:13 306 18.3
2017-Sep-20 02:08 307 18.3
2017-Sep-20 02:03 306 18.3
2017-Sep-20 01:58 306 18.3
2017-Sep-20 01:53 307 18.3
2017-Sep-20 01:48 314 18.3
2017-Sep-20 01:43 314 18.3
2017-Sep-20 01:38 316 1 gusting 1 18.3
2017-Sep-20 01:33 315 0 gusting 1 18.9
2017-Sep-20 01:28 295 18.9
2017-Sep-20 01:23 274 18.9
2017-Sep-20 01:18 319 18.9
2017-Sep-20 01:13 319 19.4
2017-Sep-20 01:08 319 19.4
2017-Sep-20 01:03 319 19.4
2017-Sep-20 00:58 319 19.4
2017-Sep-20 00:53 319 19.4
2017-Sep-20 00:48 319 19.4
2017-Sep-20 00:43 319 19.4
2017-Sep-20 00:38 319 19.4
2017-Sep-20 00:33 319 18.9
2017-Sep-20 00:28 319 18.9
2017-Sep-20 00:23 319 18.9
2017-Sep-20 00:18 319 18.9
2017-Sep-20 00:13 319 18.9
2017-Sep-20 00:08 319 19.4
2017-Sep-20 00:03 319 19.4
2017-Sep-19 23:58 319 19.4
2017-Sep-19 23:53 319 19.4
2017-Sep-19 23:48 319 19.4
2017-Sep-19 23:43 319 19.4
2017-Sep-19 23:38 319 19.4
2017-Sep-19 23:33 319 19.4
2017-Sep-19 23:28 319 19.4
2017-Sep-19 23:23 319 19.4
2017-Sep-19 23:18 319 19.4
2017-Sep-19 23:13 319 19.4
2017-Sep-19 23:08 319 19.4
2017-Sep-19 23:03 319 19.4
2017-Sep-19 22:58 319 19.4
2017-Sep-19 22:53 319 19.4
2017-Sep-19 22:48 319 19.4
2017-Sep-19 22:43 319 19.4
2017-Sep-19 22:38 319 19.4
2017-Sep-19 22:33 319 18.9
2017-Sep-19 22:28 319 18.9
2017-Sep-19 22:23 319 18.9
2017-Sep-19 22:18 319 18.9
2017-Sep-19 22:13 319 18.9
2017-Sep-19 22:08 319 18.9
2017-Sep-19 22:03 319 18.9
2017-Sep-19 21:58 319 19.4
2017-Sep-19 21:53 319 19.4
2017-Sep-19 21:48 319 19.4
2017-Sep-19 21:43 319 19.4
2017-Sep-19 21:38 319 19.4
2017-Sep-19 21:33 319 19.4
2017-Sep-19 21:28 319 19.4
2017-Sep-19 21:23 319 19.4
2017-Sep-19 21:18 319 19.4
2017-Sep-19 21:13 319 19.4
2017-Sep-19 21:08 319 19.4
2017-Sep-19 21:03 319 19.4
2017-Sep-19 20:58 319 19.4
2017-Sep-19 20:53 319 19.4
2017-Sep-19 20:48 319 19.4
2017-Sep-19 20:43 319 0 gusting 1 19.4
2017-Sep-19 20:38 326 19.4
2017-Sep-19 20:33 328 19.4
2017-Sep-19 20:28 328 19.4
2017-Sep-19 20:23 328 19.4
2017-Sep-19 20:18 338 20.0
2017-Sep-19 20:13 337 20.0
2017-Sep-19 20:08 338 20.0
2017-Sep-19 20:03 337 20.0
2017-Sep-19 19:58 117 20.0
2017-Sep-19 19:53 117 20.0
2017-Sep-19 19:48 122 20.6
2017-Sep-19 19:43 122 20.6
2017-Sep-19 19:38 122 20.6
2017-Sep-19 19:33 122 20.6
2017-Sep-19 19:28 122 20.6
2017-Sep-19 19:23 122 20.6
2017-Sep-19 19:18 122 20.6
2017-Sep-19 19:13 123 20.6
2017-Sep-19 19:08 122 20.6
2017-Sep-19 19:03 122 20.6
2017-Sep-19 18:58 122 20.6
2017-Sep-19 18:53 113 20.6
2017-Sep-19 18:48 113 20.6
2017-Sep-19 18:43 113 20.6
2017-Sep-19 18:38 113 21.1
2017-Sep-19 18:33 113 21.1
2017-Sep-19 18:28 113 21.1
2017-Sep-19 18:23 113 21.1
2017-Sep-19 18:18 113 21.1
2017-Sep-19 18:08 113 21.7
2017-Sep-19 18:03 113 21.7
2017-Sep-19 17:58 106 21.7
2017-Sep-19 17:53 118 21.7
2017-Sep-19 17:48 113 21.7
2017-Sep-19 17:43 115 22.2
2017-Sep-19 17:38 119 22.2
2017-Sep-19 17:33 109 22.2
2017-Sep-19 17:28 117 22.2
2017-Sep-19 17:23 122 22.8
2017-Sep-19 17:18 096 0 gusting 2 22.8
2017-Sep-19 17:13 135 0 gusting 2 22.8
2017-Sep-19 17:08 138 0 gusting 2 23.3
2017-Sep-19 17:03 094 0 gusting 2 23.3
2017-Sep-19 16:58 120 0 gusting 2 23.3
2017-Sep-19 16:53 096 0 gusting 2 23.3
2017-Sep-19 16:48 105 0 gusting 3 23.3
2017-Sep-19 16:43 106 0 gusting 3 23.9
2017-Sep-19 16:38 084 0 gusting 3 23.9
2017-Sep-19 16:33 105 0 gusting 3 23.9
2017-Sep-19 16:28 064 0 gusting 2 23.9
2017-Sep-19 16:23 105 0 gusting 3 23.9
2017-Sep-19 16:18 109 0 gusting 3 23.9
2017-Sep-19 16:13 127 0 gusting 3 23.9
2017-Sep-19 16:08 081 0 gusting 2 23.9
2017-Sep-19 16:03 124 0 gusting 4 24.4
2017-Sep-19 15:58 085 1 gusting 4 24.4
2017-Sep-19 15:53 124 0 gusting 4 24.4
2017-Sep-19 15:48 092 0 gusting 4 24.4
2017-Sep-19 15:43 070 0 gusting 5 24.4
2017-Sep-19 15:38 020 1 gusting 6 23.9
2017-Sep-19 15:33 110 1 gusting 4 24.4
2017-Sep-19 15:28 065 1 gusting 6 24.4
2017-Sep-19 15:23 106 1 gusting 6 24.4
2017-Sep-19 15:18 191 1 gusting 6 24.4
2017-Sep-19 15:13 078 1 gusting 5 24.4
2017-Sep-19 15:08 073 2 gusting 5 24.4
2017-Sep-19 15:03 074 1 gusting 5 24.4
2017-Sep-19 14:58 102 2 gusting 5 25.0
2017-Sep-19 14:53 070 1 gusting 5 25.0
2017-Sep-19 14:48 110 2 gusting 5 25.0
2017-Sep-19 14:43 116 1 gusting 4 25.0
2017-Sep-19 14:38 116 1 gusting 4 25.0
2017-Sep-19 14:33 094 2 gusting 5 25.0
2017-Sep-19 14:28 095 2 gusting 6 25.0
2017-Sep-19 14:23 117 1 gusting 5 25.6
2017-Sep-19 14:18 095 1 gusting 5 25.0
2017-Sep-19 14:03 054 2 gusting 6 25.6
2017-Sep-19 13:58 077 2 gusting 5 25.6
2017-Sep-19 13:54 113 1 gusting 4 25.6
2017-Sep-19 13:48 073 0 gusting 5 25.6
2017-Sep-19 13:43 112 1 gusting 6 25.6
2017-Sep-19 13:33 091 2 gusting 6 26.1
2017-Sep-19 13:28 141 2 gusting 6 26.1
2017-Sep-19 13:23 122 2 gusting 9 26.1
2017-Sep-19 13:18 111 2 gusting 9 26.1
2017-Sep-19 13:13 109 2 gusting 6 26.1
2017-Sep-19 13:08 089 2 gusting 7 26.1
2017-Sep-19 13:03 115 4 gusting 8 26.7
2017-Sep-19 12:58 127 3 gusting 6 26.7
2017-Sep-19 12:53 127 1 gusting 6 26.7
2017-Sep-19 12:48 129 0 gusting 6 26.7
2017-Sep-19 12:43 204 2 gusting 8 26.7
2017-Sep-19 12:38 197 2 gusting 8 26.7
2017-Sep-19 12:33 211 1 gusting 7 26.1
2017-Sep-19 12:28 186 3 gusting 7 26.1
2017-Sep-19 12:23 120 2 gusting 7 26.7
2017-Sep-19 12:18 120 1 gusting 10 26.1
2017-Sep-19 12:13 198 3 gusting 10 26.1
2017-Sep-19 12:08 160 4 gusting 7 26.1
2017-Sep-19 12:03 160 3 gusting 6 26.1
2017-Sep-19 11:58 207 2 gusting 6 26.7
2017-Sep-19 11:53 207 0 gusting 4 26.7
2017-Sep-19 11:48 318 0 gusting 5 26.7
2017-Sep-19 11:43 186 2 gusting 5 26.1
2017-Sep-19 11:38 197 2 gusting 6 26.7
2017-Sep-19 11:33 224 2 gusting 6 26.1
2017-Sep-19 11:28 198 1 gusting 4 26.1
2017-Sep-19 11:23 148 1 gusting 4 26.1
2017-Sep-19 11:18 170 1 gusting 6 26.1
2017-Sep-19 11:14 133 2 gusting 6 26.1
2017-Sep-19 11:08 200 2 gusting 5 25.6
2017-Sep-19 11:03 099 1 gusting 4 25.6
2017-Sep-19 10:58 139 25.0
2017-Sep-19 10:53 169 1 gusting 4 25.0
2017-Sep-19 10:48 146 2 gusting 4 24.4
2017-Sep-19 10:43 220 1 gusting 4 25.0
2017-Sep-19 10:38 133 1 gusting 5 25.0
2017-Sep-19 10:33 260 2 gusting 5 24.4
2017-Sep-19 10:28 199 0 gusting 3 24.4